15-11-2022, 00:00:05,    147,    0.7,    6.6,   0.00,   0.00, 1001.3,   86.5, -999.0
15-11-2022, 00:00:15,    159,    0.6,    6.6,   0.00,   0.00, 1001.3,   86.4, -999.0
15-11-2022, 00:00:25,    158,    0.4,    6.6,   0.00,   0.00, 1001.3,   86.4, -999.0
15-11-2022, 00:00:35,    158,    0.5,    6.5,   0.00,   0.00, 1001.3,   86.5, -999.0
15-11-2022, 00:00:45,    158,    0.7,    6.6,   0.00,   0.00, 1001.3,   86.6, -999.0
15-11-2022, 00:00:55,    159,    0.4,    6.6,   0.00,   0.00, 1001.3,   86.5, -999.0
15-11-2022, 00:01:05,    171,    0.8,    6.6,   0.00,   0.00, 1001.3,   86.5, -999.0
15-11-2022, 00:01:15,    171,    0.2,    6.6,   0.00,   0.00, 1001.3,   86.3, -999.0
15-11-2022, 00:01:25,    163,    0.2,    6.6,   0.00,   0.00, 1001.2,   86.2, -999.0
15-11-2022, 00:01:34,    167,    0.7,    6.6,   0.00,   0.00, 1001.3,   86.3, -999.0
15-11-2022, 00:01:45,    163,    0.3,    6.5,   0.00,   0.00, 1001.2,   86.2, -999.0
15-11-2022, 00:01:55,    168,    0.6,    6.4,   0.00,   0.00, 1001.3,   86.5, -999.0
15-11-2022, 00:02:04,    167,    0.3,    6.5,   0.00,   0.00, 1001.2,   86.3, -999.0
15-11-2022, 00:02:14,    167,    0.2,    6.5,   0.00,   0.00, 1001.2,   86.4, -999.0
15-11-2022, 00:02:25,    168,    0.4,    6.6,   0.00,   0.00, 1001.2,   86.5, -999.0
15-11-2022, 00:02:34,    144,    1.0,    6.6,   0.00,   0.00, 1001.2,   86.6, -999.0
15-11-2022, 00:02:44,    201,    1.6,    6.7,   0.00,   0.00, 1001.2,   86.5, -999.0
15-11-2022, 00:02:55,    138,    1.3,    6.6,   0.00,   0.00, 1001.2,   86.3, -999.0
15-11-2022, 00:03:04,    144,    2.2,    6.6,   0.00,   0.00, 1001.2,   86.3, -999.0
15-11-2022, 00:03:14,    194,    0.4,    6.5,   0.00,   0.00, 1001.1,   86.1, -999.0
15-11-2022, 00:03:24,    178,    0.0,    6.6,   0.00,   0.00, 1001.1,   86.1, -999.0
15-11-2022, 00:03:34,    178,    0.0,    6.5,   0.00,   0.00, 1001.1,   86.0, -999.0
15-11-2022, 00:03:44,    178,    0.0,    6.5,   0.00,   0.00, 1001.1,   86.1, -999.0
15-11-2022, 00:03:54,    176,    0.0,    6.5,   0.00,   0.00, 1001.1,   86.3, -999.0
15-11-2022, 00:04:04,    158,    1.2,    6.5,   0.00,   0.00, 1001.2,   86.7, -999.0
15-11-2022, 00:04:14,    158,    0.0,    6.5,   0.00,   0.00, 1001.0,   86.3, -999.0
15-11-2022, 00:04:24,    158,    0.6,    6.6,   0.00,   0.00, 1001.2,   86.7, -999.0
15-11-2022, 00:04:34,    158,    0.2,    6.6,   0.00,   0.00, 1001.2,   86.7, -999.0
15-11-2022, 00:04:44,    158,    0.0,    6.5,   0.00,   0.00, 1001.0,   86.4, -999.0
15-11-2022, 00:04:54,    157,    0.4,    6.6,   0.00,   0.00, 1001.2,   86.8, -999.0
15-11-2022, 00:05:04,    146,    1.5,    6.6,   0.00,   0.00, 1001.1,   86.7, -999.0
15-11-2022, 00:05:14,    145,    0.9,    6.6,   0.00,   0.00, 1001.2,   86.6, -999.0
15-11-2022, 00:05:24,    141,    0.7,    6.6,   0.00,   0.00, 1001.1,   86.5, -999.0
15-11-2022, 00:05:34,    197,    0.7,    6.6,   0.00,   0.00, 1001.1,   86.4, -999.0
15-11-2022, 00:05:44,    192,    0.3,    6.5,   0.00,   0.00, 1001.1,   86.3, -999.0
15-11-2022, 00:05:54,    165,    0.3,    6.5,   0.00,   0.00, 1001.1,   86.3, -999.0
15-11-2022, 00:06:04,    164,    0.0,    6.6,   0.00,   0.00, 1001.0,   86.3, -999.0
15-11-2022, 00:06:14,    165,    0.0,    6.5,   0.00,   0.00, 1001.0,   86.2, -999.0
15-11-2022, 00:06:24,    164,    0.0,    6.5,   0.00,   0.00, 1001.0,   86.3, -999.0
15-11-2022, 00:06:34,    164,    0.0,    6.4,   0.00,   0.00, 1001.0,   86.3, -999.0
15-11-2022, 00:06:43,    164,    0.0,    6.5,   0.00,   0.00, 1001.0,   86.2, -999.0
15-11-2022, 00:06:54,    164,    0.0,    6.5,   0.00,   0.00, 1001.0,   86.3, -999.0
15-11-2022, 00:07:04,    163,    0.3,    6.5,   0.00,   0.00, 1001.1,   86.4, -999.0
15-11-2022, 00:07:13,    158,    0.9,    6.6,   0.00,   0.00, 1001.2,   86.5, -999.0
15-11-2022, 00:07:24,    166,    2.1,    6.6,   0.00,   0.00, 1001.2,   86.4, -999.0
15-11-2022, 00:07:34,    154,    1.4,    6.6,   0.00,   0.00, 1001.2,   86.3, -999.0
15-11-2022, 00:07:43,    151,    1.3,    6.6,   0.00,   0.00, 1001.2,   86.2, -999.0
15-11-2022, 00:07:53,    160,    1.7,    6.6,   0.00,   0.00, 1001.2,   86.2, -999.0
15-11-2022, 00:08:04,    190,    1.2,    6.6,   0.00,   0.00, 1001.2,   86.2, -999.0
15-11-2022, 00:08:13,    190,    0.3,    6.6,   0.00,   0.00, 1001.1,   86.2, -999.0
15-11-2022, 00:08:23,    190,    0.3,    6.6,   0.00,   0.00, 1001.2,   86.4, -999.0
15-11-2022, 00:08:33,    189,    0.0,    6.5,   0.00,   0.00, 1001.0,   86.2, -999.0
15-11-2022, 00:08:43,    188,    0.1,    6.6,   0.00,   0.00, 1001.1,   86.5, -999.0
15-11-2022, 00:08:53,    188,    0.2,    6.5,   0.00,   0.00, 1001.1,   86.3, -999.0
15-11-2022, 00:09:03,    188,    0.0,    6.5,   0.00,   0.00, 1001.0,   86.1, -999.0
15-11-2022, 00:09:13,    188,    0.0,    6.5,   0.00,   0.00, 1001.0,   86.0, -999.0
15-11-2022, 00:09:23,    188,    0.0,    6.5,   0.00,   0.00, 1001.0,   86.0, -999.0
15-11-2022, 00:09:33,    188,    0.0,    6.5,   0.00,   0.00, 1001.0,   86.0, -999.0
15-11-2022, 00:09:43,    189,    0.0,    6.4,   0.00,   0.00, 1001.0,   86.1, -999.0
15-11-2022, 00:09:53,    188,    0.0,    6.5,   0.00,   0.00, 1001.0,   86.1, -999.0
15-11-2022, 00:10:03,    188,    0.0,    6.6,   0.00,   0.00, 1001.0,   86.1, -999.0
15-11-2022, 00:10:13,    188,    0.0,    6.6,   0.00,   0.00, 1001.1,   86.2, -999.0
15-11-2022, 00:10:23,    188,    0.0,    6.5,   0.00,   0.00, 1001.0,   86.2, -999.0
15-11-2022, 00:10:33,    141,    0.8,    6.6,   0.00,   0.00, 1001.1,   86.4, -999.0
15-11-2022, 00:10:43,    181,    0.7,    6.7,   0.00,   0.00, 1001.2,   86.3, -999.0
15-11-2022, 00:10:53,    179,    0.4,    6.6,   0.00,   0.00, 1001.1,   86.1, -999.0
15-11-2022, 00:11:03,    179,    0.0,    6.5,   0.00,   0.00, 1001.0,   85.9, -999.0
15-11-2022, 00:11:13,    179,    0.2,    6.5,   0.00,   0.00, 1001.1,   86.1, -999.0
15-11-2022, 00:11:23,    181,    0.9,    6.6,   0.00,   0.00, 1001.2,   86.3, -999.0
15-11-2022, 00:11:33,    182,    0.4,    6.6,   0.00,   0.00, 1001.1,   86.2, -999.0
15-11-2022, 00:11:43,    174,    0.3,    6.5,   0.00,   0.00, 1001.1,   86.1, -999.0
15-11-2022, 00:11:53,    146,    0.9,    6.5,   0.00,   0.00, 1001.2,   86.2, -999.0
15-11-2022, 00:12:03,    228,    0.2,    6.6,   0.00,   0.00, 1001.1,   86.1, -999.0
15-11-2022, 00:12:13,    227,    0.0,    6.5,   0.00,   0.00, 1001.0,   85.8, -999.0
15-11-2022, 00:12:22,    156,    0.6,    6.6,   0.00,   0.00, 1001.1,   86.3, -999.0
15-11-2022, 00:12:33,    185,    0.6,    6.6,   0.00,   0.00, 1001.2,   86.2, -999.0
15-11-2022, 00:12:43,    185,    0.2,    6.6,   0.00,   0.00, 1001.1,   86.1, -999.0
15-11-2022, 00:12:52,    185,    0.4,    6.5,   0.00,   0.00, 1001.1,   86.2, -999.0
15-11-2022, 00:13:02,    184,    0.1,    6.5,   0.00,   0.00, 1001.1,   86.1, -999.0
15-11-2022, 00:13:13,    184,    0.0,    6.5,   0.00,   0.00, 1001.0,   86.0, -999.0
15-11-2022, 00:13:22,    184,    0.0,    6.5,   0.00,   0.00, 1001.0,   85.9, -999.0
15-11-2022, 00:13:32,    184,    0.0,    6.5,   0.00,   0.00, 1001.0,   86.1, -999.0
15-11-2022, 00:13:43,    157,    0.6,    6.6,   0.00,   0.00, 1001.1,   86.2, -999.0
15-11-2022, 00:13:52,    151,    1.3,    6.7,   0.00,   0.00, 1001.2,   86.3, -999.0
15-11-2022, 00:14:02,    178,    1.0,    6.6,   0.00,   0.00, 1001.2,   86.2, -999.0
15-11-2022, 00:14:12,    175,    0.5,    6.7,   0.00,   0.00, 1001.2,   86.0, -999.0
15-11-2022, 00:14:22,    175,    0.5,    6.6,   0.00,   0.00, 1001.2,   86.0, -999.0
15-11-2022, 00:14:32,    154,    1.1,    6.7,   0.00,   0.00, 1001.2,   85.9, -999.0
15-11-2022, 00:14:42,    152,    1.2,    6.7,   0.00,   0.00, 1001.2,   86.0, -999.0
15-11-2022, 00:14:52,    152,    0.5,    6.7,   0.00,   0.00, 1001.1,   85.7, -999.0
15-11-2022, 00:15:02,    152,    0.3,    6.5,   0.00,   0.00, 1001.1,   85.7, -999.0
15-11-2022, 00:15:12,    151,    0.7,    6.7,   0.00,   0.00, 1001.1,   85.8, -999.0
15-11-2022, 00:15:22,    161,    1.2,    6.7,   0.00,   0.00, 1001.1,   85.8, -999.0
15-11-2022, 00:15:32,    163,    0.1,    6.7,   0.00,   0.00, 1001.1,   85.6, -999.0
15-11-2022, 00:15:42,    163,    0.1,    6.6,   0.00,   0.00, 1001.1,   85.8, -999.0
15-11-2022, 00:15:52,    163,    0.0,    6.6,   0.00,   0.00, 1001.0,   85.5, -999.0
15-11-2022, 00:16:02,    163,    0.0,    6.6,   0.00,   0.00, 1001.0,   85.5, -999.0
15-11-2022, 00:16:12,    163,    0.0,    6.6,   0.00,   0.00, 1001.0,   85.5, -999.0
15-11-2022, 00:16:22,    163,    0.2,    6.7,   0.00,   0.00, 1001.1,   85.7, -999.0
15-11-2022, 00:16:32,    158,    0.6,    6.7,   0.00,   0.00, 1001.1,   85.8, -999.0
15-11-2022, 00:16:44,    127,    0.9,    6.7,   0.00,   0.00, 1001.1,   85.8, -999.0
15-11-2022, 00:16:52,    143,    0.3,    6.7,   0.00,   0.00, 1001.1,   85.5, -999.0
15-11-2022, 00:17:02,    143,    0.0,    6.6,   0.00,   0.00, 1001.0,   85.3, -999.0
15-11-2022, 00:17:12,    142,    0.6,    6.7,   0.00,   0.00, 1001.1,   85.6, -999.0
15-11-2022, 00:17:22,    199,    0.1,    6.7,   0.00,   0.00, 1001.1,   85.5, -999.0
15-11-2022, 00:17:32,    206,    0.6,    6.7,   0.00,   0.00, 1001.1,   85.5, -999.0
15-11-2022, 00:17:42,    206,    0.0,    6.6,   0.00,   0.00, 1001.0,   85.3, -999.0
15-11-2022, 00:17:52,    205,    0.0,    6.7,   0.00,   0.00, 1001.0,   85.1, -999.0
15-11-2022, 00:18:01,    160,    0.0,    6.7,   0.00,   0.00, 1001.0,   85.2, -999.0
15-11-2022, 00:18:12,    160,    0.3,    6.7,   0.00,   0.00, 1001.1,   85.3, -999.0
15-11-2022, 00:18:22,    180,    0.9,    6.7,   0.00,   0.00, 1001.1,   85.4, -999.0
15-11-2022, 00:18:31,    167,    1.2,    6.7,   0.00,   0.00, 1001.1,   85.5, -999.0
15-11-2022, 00:18:42,    137,    0.7,    6.7,   0.00,   0.00, 1001.1,   85.4, -999.0
15-11-2022, 00:18:52,    135,    1.5,    6.7,   0.00,   0.00, 1001.1,   85.5, -999.0
15-11-2022, 00:19:01,    170,    0.8,    6.7,   0.00,   0.00, 1001.1,   85.4, -999.0
15-11-2022, 00:19:11,    158,    0.9,    6.7,   0.00,   0.00, 1001.1,   85.5, -999.0
15-11-2022, 00:19:22,    157,    0.3,    6.6,   0.00,   0.00, 1001.0,   85.4, -999.0
15-11-2022, 00:19:31,    165,    0.5,    6.6,   0.00,   0.00, 1001.1,   85.5, -999.0
15-11-2022, 00:19:41,    172,    1.1,    6.7,   0.00,   0.00, 1001.0,   85.6, -999.0
15-11-2022, 00:19:51,    172,    0.6,    6.7,   0.00,   0.00, 1001.0,   85.6, -999.0
15-11-2022, 00:20:01,    171,    0.1,    6.6,   0.00,   0.00, 1001.0,   85.4, -999.0
15-11-2022, 00:20:11,    171,    0.1,    6.6,   0.00,   0.00, 1001.0,   85.5, -999.0
15-11-2022, 00:20:21,    160,    1.7,    6.7,   0.00,   0.00, 1001.0,   85.7, -999.0
15-11-2022, 00:20:31,    161,    1.0,    6.6,   0.00,   0.00, 1001.0,   85.7, -999.0
15-11-2022, 00:20:41,    132,    1.1,    6.7,   0.00,   0.00, 1001.0,   85.8, -999.0
15-11-2022, 00:20:51,    131,    1.2,    6.6,   0.00,   0.00, 1001.0,   85.8, -999.0
15-11-2022, 00:21:01,    132,    0.0,    6.5,   0.00,   0.00, 1000.9,   85.7, -999.0
15-11-2022, 00:21:11,    136,    0.3,    6.7,   0.00,   0.00, 1001.0,   85.9, -999.0
15-11-2022, 00:21:21,    136,    0.1,    6.6,   0.00,   0.00, 1001.0,   85.9, -999.0
15-11-2022, 00:21:31,    138,    0.4,    6.6,   0.00,   0.00, 1001.0,   86.0, -999.0
15-11-2022, 00:21:42,    136,    0.9,    6.7,   0.00,   0.00, 1001.0,   86.0, -999.0
15-11-2022, 00:21:51,    135,    0.2,    6.7,   0.00,   0.00, 1001.0,   86.0, -999.0
15-11-2022, 00:22:01,    135,    0.0,    6.6,   0.00,   0.00, 1000.9,   85.9, -999.0
15-11-2022, 00:22:11,    135,    0.4,    6.6,   0.00,   0.00, 1001.0,   86.0, -999.0
15-11-2022, 00:22:21,    135,    0.0,    6.6,   0.00,   0.00, 1000.9,   85.7, -999.0
15-11-2022, 00:22:31,    135,    0.0,    6.5,   0.00,   0.00, 1000.9,   85.6, -999.0
15-11-2022, 00:22:41,    135,    0.0,    6.6,   0.00,   0.00, 1000.9,   85.6, -999.0
15-11-2022, 00:22:51,    135,    0.0,    6.6,   0.00,   0.00, 1000.9,   85.7, -999.0
15-11-2022, 00:23:00,    135,    0.0,    6.6,   0.00,   0.00, 1000.8,   85.7, -999.0
15-11-2022, 00:23:11,    137,    0.0,    6.5,   0.00,   0.00, 1000.9,   85.8, -999.0
15-11-2022, 00:23:21,    149,    0.3,    6.6,   0.00,   0.00, 1001.0,   86.0, -999.0
15-11-2022, 00:23:30,    153,    0.9,    6.7,   0.00,   0.00, 1001.0,   86.2, -999.0
15-11-2022, 00:23:41,    153,    0.4,    6.7,   0.00,   0.00, 1001.0,   86.1, -999.0
15-11-2022, 00:23:51,    153,    0.0,    6.6,   0.00,   0.00, 1000.9,   85.8, -999.0
15-11-2022, 00:24:00,    153,    0.2,    6.6,   0.00,   0.00, 1000.9,   86.0, -999.0
15-11-2022, 00:24:10,    161,    0.9,    6.7,   0.00,   0.00, 1001.0,   86.3, -999.0
15-11-2022, 00:24:21,    169,    0.2,    6.6,   0.00,   0.00, 1001.0,   86.0, -999.0
15-11-2022, 00:24:30,    169,    0.0,    6.6,   0.00,   0.00, 1000.9,   86.0, -999.0
15-11-2022, 00:24:40,    169,    0.4,    6.6,   0.00,   0.00, 1001.0,   86.3, -999.0
15-11-2022, 00:24:50,    168,    0.3,    6.6,   0.00,   0.00, 1001.0,   86.2, -999.0
15-11-2022, 00:25:01,    168,    0.0,    6.6,   0.00,   0.00, 1000.9,   85.9, -999.0
15-11-2022, 00:25:10,    168,    0.0,    6.5,   0.00,   0.00, 1000.9,   86.0, -999.0
15-11-2022, 00:25:20,    168,    0.0,    6.6,   0.00,   0.00, 1000.9,   86.1, -999.0
15-11-2022, 00:25:30,    168,    0.0,    6.6,   0.00,   0.00, 1000.9,   86.1, -999.0
15-11-2022, 00:25:40,    168,    0.1,    6.5,   0.00,   0.00, 1000.9,   86.0, -999.0
15-11-2022, 00:25:50,    167,    0.6,    6.6,   0.00,   0.00, 1001.0,   86.5, -999.0
15-11-2022, 00:26:00,    167,    0.3,    6.7,   0.00,   0.00, 1001.0,   86.4, -999.0
15-11-2022, 00:26:10,    167,    0.0,    6.5,   0.00,   0.00, 1000.9,   86.2, -999.0
15-11-2022, 00:26:20,    167,    0.1,    6.6,   0.00,   0.00, 1000.9,   86.3, -999.0
15-11-2022, 00:26:30,    167,    0.0,    6.6,   0.00,   0.00, 1000.9,   86.3, -999.0
15-11-2022, 00:26:40,    170,    0.0,    6.5,   0.00,   0.00, 1000.9,   86.3, -999.0
15-11-2022, 00:26:50,    170,    0.0,    6.4,   0.00,   0.00, 1000.9,   86.4, -999.0
15-11-2022, 00:27:00,    154,    0.1,    6.6,   0.00,   0.00, 1000.9,   86.4, -999.0
15-11-2022, 00:27:10,    153,    1.2,    6.6,   0.00,   0.00, 1001.0,   86.7, -999.0
15-11-2022, 00:27:20,    152,    1.1,    6.6,   0.00,   0.00, 1001.0,   86.5, -999.0
15-11-2022, 00:27:30,    164,    1.7,    6.6,   0.00,   0.00, 1001.0,   86.4, -999.0
15-11-2022, 00:27:40,    186,    0.8,    6.6,   0.00,   0.00, 1001.0,   86.3, -999.0
15-11-2022, 00:27:50,    146,    1.0,    6.6,   0.00,   0.00, 1001.0,   86.3, -999.0
15-11-2022, 00:28:00,    159,    0.2,    6.6,   0.00,   0.00, 1000.9,   86.2, -999.0
15-11-2022, 00:28:10,    158,    0.0,    6.5,   0.00,   0.00, 1000.9,   86.3, -999.0
15-11-2022, 00:28:20,    171,    0.0,    6.5,   0.00,   0.00, 1000.9,   86.4, -999.0
15-11-2022, 00:28:30,    171,    0.2,    6.5,   0.00,   0.00, 1000.9,   86.6, -999.0
15-11-2022, 00:28:39,    133,    1.3,    6.6,   0.00,   0.00, 1001.0,   86.8, -999.0
15-11-2022, 00:28:50,    154,    1.9,    6.6,   0.00,   0.00, 1001.0,   86.8, -999.0
15-11-2022, 00:29:00,    138,    2.1,    6.6,   0.00,   0.00, 1001.0,   86.7, -999.0
15-11-2022, 00:29:09,    140,    0.9,    6.6,   0.00,   0.00, 1001.0,   86.7, -999.0
15-11-2022, 00:29:19,    141,    0.7,    6.5,   0.00,   0.00, 1001.0,   86.7, -999.0
15-11-2022, 00:29:30,    160,    1.1,    6.6,   0.00,   0.00, 1001.0,   86.8, -999.0
15-11-2022, 00:29:39,    148,    1.1,    6.6,   0.00,   0.00, 1001.0,   86.8, -999.0
15-11-2022, 00:29:49,    154,    0.7,    6.6,   0.00,   0.00, 1001.0,   86.8, -999.0
15-11-2022, 00:30:00,    145,    1.0,    6.6,   0.00,   0.00, 1000.9,   86.9, -999.0
15-11-2022, 00:30:10,    150,    1.7,    6.6,   0.00,   0.00, 1001.0,   86.8, -999.0
15-11-2022, 00:30:19,    151,    0.8,    6.7,   0.00,   0.00, 1001.0,   86.7, -999.0
15-11-2022, 00:30:29,    151,    0.2,    6.6,   0.00,   0.00, 1000.9,   86.6, -999.0
15-11-2022, 00:30:40,    150,    0.1,    6.6,   0.00,   0.00, 1000.9,   86.7, -999.0
15-11-2022, 00:30:49,    150,    0.0,    6.6,   0.00,   0.00, 1000.8,   86.5, -999.0
15-11-2022, 00:30:59,    175,    0.2,    6.6,   0.00,   0.00, 1000.9,   86.6, -999.0
15-11-2022, 00:31:09,    163,    0.1,    6.6,   0.00,   0.00, 1000.8,   86.4, -999.0
15-11-2022, 00:31:19,    171,    2.1,    6.6,   0.00,   0.00, 1000.9,   86.7, -999.0
15-11-2022, 00:31:29,    170,    0.6,    6.6,   0.00,   0.00, 1000.9,   86.6, -999.0
15-11-2022, 00:31:39,    159,    0.4,    6.6,   0.00,   0.00, 1000.9,   86.6, -999.0
15-11-2022, 00:31:49,    153,    0.9,    6.6,   0.00,   0.00, 1001.0,   86.6, -999.0
15-11-2022, 00:31:59,    152,    1.3,    6.6,   0.00,   0.00, 1001.0,   86.7, -999.0
15-11-2022, 00:32:09,    146,    1.0,    6.7,   0.00,   0.00, 1001.0,   86.6, -999.0
15-11-2022, 00:32:19,    146,    0.1,    6.6,   0.00,   0.00, 1000.8,   86.4, -999.0
15-11-2022, 00:32:29,    146,    0.0,    6.6,   0.00,   0.00, 1000.8,   86.4, -999.0
15-11-2022, 00:32:39,    147,    0.0,    6.6,   0.00,   0.00, 1000.8,   86.6, -999.0
15-11-2022, 00:32:49,    146,    0.0,    6.5,   0.00,   0.00, 1000.8,   86.5, -999.0
15-11-2022, 00:32:59,    147,    0.0,    6.5,   0.00,   0.00, 1000.8,   86.4, -999.0
15-11-2022, 00:33:09,    146,    0.5,    6.6,   0.00,   0.00, 1000.9,   86.7, -999.0
15-11-2022, 00:33:19,    150,    0.2,    6.5,   0.00,   0.00, 1000.9,   86.7, -999.0
15-11-2022, 00:33:29,    202,    0.1,    6.6,   0.00,   0.00, 1000.9,   86.6, -999.0
15-11-2022, 00:33:39,    140,    0.1,    6.5,   0.00,   0.00, 1000.9,   86.6, -999.0
15-11-2022, 00:33:49,    140,    0.1,    6.6,   0.00,   0.00, 1000.8,   86.5, -999.0
15-11-2022, 00:33:59,    150,    0.8,    6.6,   0.00,   0.00, 1001.0,   86.7, -999.0
15-11-2022, 00:34:09,    146,    1.7,    6.7,   0.00,   0.00, 1000.9,   86.7, -999.0
15-11-2022, 00:34:18,    166,    0.8,    6.7,   0.00,   0.00, 1000.9,   86.5, -999.0
15-11-2022, 00:34:29,    166,    0.1,    6.6,   0.00,   0.00, 1000.8,   86.3, -999.0
15-11-2022, 00:34:39,    166,    0.0,    6.5,   0.00,   0.00, 1000.8,   86.3, -999.0
15-11-2022, 00:34:48,    163,    0.4,    6.6,   0.00,   0.00, 1000.9,   86.7, -999.0
15-11-2022, 00:34:58,    163,    0.1,    6.7,   0.00,   0.00, 1000.8,   86.5, -999.0
15-11-2022, 00:35:09,    165,    1.2,    6.7,   0.00,   0.00, 1000.9,   86.7, -999.0
15-11-2022, 00:35:18,    164,    1.1,    6.7,   0.00,   0.00, 1000.9,   86.5, -999.0
15-11-2022, 00:35:28,    163,    0.5,    6.6,   0.00,   0.00, 1000.9,   86.5, -999.0
15-11-2022, 00:35:39,    154,    1.0,    6.7,   0.00,   0.00, 1000.9,   86.5, -999.0
15-11-2022, 00:35:48,    157,    1.6,    6.7,   0.00,   0.00, 1000.8,   86.4, -999.0
15-11-2022, 00:35:58,    157,    0.7,    6.7,   0.00,   0.00, 1000.8,   86.2, -999.0
15-11-2022, 00:36:08,    157,    0.1,    6.6,   0.00,   0.00, 1000.8,   86.1, -999.0
15-11-2022, 00:36:19,    144,    0.1,    6.6,   0.00,   0.00, 1000.7,   85.9, -999.0
15-11-2022, 00:36:28,    135,    1.1,    6.7,   0.00,   0.00, 1000.8,   86.2, -999.0
15-11-2022, 00:36:38,    135,    0.1,    6.7,   0.00,   0.00, 1000.7,   85.9, -999.0
15-11-2022, 00:36:48,    163,    0.5,    6.8,   0.00,   0.00, 1000.7,   86.2, -999.0
15-11-2022, 00:36:58,    163,    1.1,    6.7,   0.00,   0.00, 1000.8,   86.2, -999.0
15-11-2022, 00:37:08,    155,    0.8,    6.7,   0.00,   0.00, 1000.8,   86.1, -999.0
15-11-2022, 00:37:18,    155,    0.4,    6.7,   0.00,   0.00, 1000.8,   86.0, -999.0
15-11-2022, 00:37:28,    157,    0.0,    6.7,   0.00,   0.00, 1000.7,   85.9, -999.0
15-11-2022, 00:37:38,    156,    0.4,    6.7,   0.00,   0.00, 1000.7,   85.9, -999.0
15-11-2022, 00:37:48,    156,    0.0,    6.6,   0.00,   0.00, 1000.7,   85.6, -999.0
15-11-2022, 00:37:58,    156,    0.3,    6.7,   0.00,   0.00, 1000.7,   85.9, -999.0
15-11-2022, 00:38:08,    163,    0.1,    6.7,   0.00,   0.00, 1000.7,   85.8, -999.0
15-11-2022, 00:38:18,    160,    0.5,    6.7,   0.00,   0.00, 1000.8,   85.9, -999.0
15-11-2022, 00:38:28,    160,    0.6,    6.8,   0.00,   0.00, 1000.8,   85.9, -999.0
15-11-2022, 00:38:38,    140,    1.1,    6.8,   0.00,   0.00, 1000.8,   86.0, -999.0
15-11-2022, 00:38:48,    142,    1.6,    6.7,   0.00,   0.00, 1000.8,   86.0, -999.0
15-11-2022, 00:38:58,    165,    0.7,    6.7,   0.00,   0.00, 1000.7,   85.9, -999.0
15-11-2022, 00:39:08,    165,    0.4,    6.7,   0.00,   0.00, 1000.7,   85.9, -999.0
15-11-2022, 00:39:18,    164,    0.0,    6.5,   0.00,   0.00, 1000.6,   85.7, -999.0
15-11-2022, 00:39:28,    165,    0.0,    6.7,   0.00,   0.00, 1000.6,   85.8, -999.0
15-11-2022, 00:39:38,    165,    0.0,    6.7,   0.00,   0.00, 1000.6,   85.8, -999.0
15-11-2022, 00:39:48,    164,    0.0,    6.8,   0.00,   0.00, 1000.6,   85.7, -999.0
15-11-2022, 00:39:57,    164,    0.2,    6.7,   0.00,   0.00, 1000.7,   85.9, -999.0
15-11-2022, 00:40:08,    163,    0.2,    6.7,   0.00,   0.00, 1000.7,   85.7, -999.0
15-11-2022, 00:40:18,    164,    0.0,    6.7,   0.00,   0.00, 1000.6,   85.6, -999.0
15-11-2022, 00:40:27,    164,    0.1,    6.7,   0.00,   0.00, 1000.7,   85.7, -999.0
15-11-2022, 00:40:37,    163,    0.1,    6.7,   0.00,   0.00, 1000.7,   85.8, -999.0
15-11-2022, 00:40:48,    164,    0.1,    6.8,   0.00,   0.00, 1000.7,   85.8, -999.0
15-11-2022, 00:40:57,    164,    0.1,    6.8,   0.00,   0.00, 1000.6,   86.0, -999.0
15-11-2022, 00:41:07,    163,    0.1,    6.8,   0.00,   0.00, 1000.6,   85.8, -999.0
15-11-2022, 00:41:18,    169,    0.4,    6.8,   0.00,   0.00, 1000.7,   85.8, -999.0
15-11-2022, 00:41:27,    170,    0.4,    6.8,   0.00,   0.00, 1000.6,   85.6, -999.0
15-11-2022, 00:41:37,    171,    0.1,    6.8,   0.00,   0.00, 1000.6,   85.4, -999.0
15-11-2022, 00:41:47,    171,    0.1,    6.7,   0.00,   0.00, 1000.6,   85.4, -999.0
15-11-2022, 00:41:58,    152,    0.7,    6.7,   0.00,   0.00, 1000.7,   85.7, -999.0
15-11-2022, 00:42:07,    152,    0.6,    6.8,   0.00,   0.00, 1000.7,   85.6, -999.0
15-11-2022, 00:42:17,    152,    0.3,    6.8,   0.00,   0.00, 1000.6,   85.6, -999.0
15-11-2022, 00:42:27,    152,    1.5,    6.8,   0.00,   0.00, 1000.6,   85.7, -999.0
15-11-2022, 00:42:37,    151,    0.9,    6.7,   0.00,   0.00, 1000.6,   85.5, -999.0
15-11-2022, 00:42:47,    163,    0.8,    6.7,   0.00,   0.00, 1000.6,   85.7, -999.0
15-11-2022, 00:42:57,    157,    0.8,    6.7,   0.00,   0.00, 1000.5,   85.6, -999.0
15-11-2022, 00:43:07,    145,    2.0,    6.7,   0.00,   0.00, 1000.6,   85.9, -999.0
15-11-2022, 00:43:17,    147,    0.9,    6.6,   0.00,   0.00, 1000.6,   85.8, -999.0
15-11-2022, 00:43:27,    148,    0.8,    6.7,   0.00,   0.00, 1000.6,   85.7, -999.0
15-11-2022, 00:43:37,    149,    0.5,    6.7,   0.00,   0.00, 1000.6,   85.7, -999.0
15-11-2022, 00:43:47,    151,    0.8,    6.7,   0.00,   0.00, 1000.6,   85.8, -999.0
15-11-2022, 00:43:57,    150,    0.5,    6.7,   0.00,   0.00, 1000.6,   85.8, -999.0
15-11-2022, 00:44:08,    150,    0.1,    6.7,   0.00,   0.00, 1000.5,   85.7, -999.0
15-11-2022, 00:44:17,    150,    0.0,    6.6,   0.00,   0.00, 1000.5,   85.5, -999.0
15-11-2022, 00:44:27,    150,    0.0,    6.6,   0.00,   0.00, 1000.5,   85.4, -999.0
15-11-2022, 00:44:37,    150,    0.0,    6.6,   0.00,   0.00, 1000.5,   85.5, -999.0
15-11-2022, 00:44:47,    150,    0.0,    6.6,   0.00,   0.00, 1000.5,   85.6, -999.0
15-11-2022, 00:44:57,    151,    0.1,    6.6,   0.00,   0.00, 1000.5,   86.0, -999.0
15-11-2022, 00:45:07,    150,    0.1,    6.7,   0.00,   0.00, 1000.5,   86.0, -999.0
15-11-2022, 00:45:17,    154,    0.0,    6.7,   0.00,   0.00, 1000.5,   85.8, -999.0
15-11-2022, 00:45:27,    167,    0.4,    6.7,   0.00,   0.00, 1000.6,   86.0, -999.0
15-11-2022, 00:45:36,    167,    0.2,    6.7,   0.00,   0.00, 1000.6,   86.0, -999.0
15-11-2022, 00:45:47,    167,    0.1,    6.6,   0.00,   0.00, 1000.5,   85.7, -999.0
15-11-2022, 00:45:57,    167,    0.0,    6.6,   0.00,   0.00, 1000.5,   85.5, -999.0
15-11-2022, 00:46:06,    167,    0.0,    6.6,   0.00,   0.00, 1000.4,   85.6, -999.0
15-11-2022, 00:46:16,    168,    0.0,    6.6,   0.00,   0.00, 1000.4,   85.7, -999.0
15-11-2022, 00:46:27,    167,    0.3,    6.7,   0.00,   0.00, 1000.5,   86.0, -999.0
15-11-2022, 00:46:37,    167,    0.2,    6.6,   0.00,   0.00, 1000.5,   85.9, -999.0
15-11-2022, 00:46:46,    167,    0.4,    6.7,   0.00,   0.00, 1000.6,   86.1, -999.0